Regional Weather Roundup
Issued by NWS

Home | Current Version | Previous Version | Text Only | Print | Product List | Glossary On
Versions: 1 2 3 4 5 6 7 8 9 10 11 12 13 14 15 16 17 18 19 20 21 22 23 24 25 26 27 28 29 30 31 32 33 34 35 36 37 38 39 40 41 42 43 44 45 46 47 48 49 50
000
ASUS45 KCYS 230210
RWRWY

WYOMING REGIONAL WEATHER ROUNDUP
NATIONAL WEATHER SERVICE CHEYENNE WY
800 PM MDT THU JUN 22 2017

NOTE:  "FAIR" INDICATES FEW OR NO CLOUDS BELOW 12,000 FEET
WITH NO SIGNIFICANT WEATHER AND/OR OBSTRUCTIONS TO VISIBILITY.

WYZ001-230300-
YELLOWSTONE NATIONAL PARK

CITY           SKY/WX    TMP DP  RH WIND       PRES   REMARKS
LK YELLOWSTONE   N/A     56  23  27 NW8G18    30.24R
W YELLOWSTONE  NOT AVBL

$$
WYZ002>013-054>058-071-098>099-230300-
NORTHERN WYOMING

CITY           SKY/WX    TMP DP  RH WIND       PRES   REMARKS
JACKSON        CLEAR     66  25  20 CALM      30.16R
CODY           FAIR      61  28  28 N22       30.17R
GREYBULL       FAIR      70  27  20 NW24G30   30.04R
WORLAND        FAIR      70  27  20 N23G30    30.04R
SHERIDAN       CLOUDY    64  33  31 NW15      30.11R
BUFFALO        FAIR      61  32  33 N20G26    30.13R
GILLETTE       FAIR      65  33  30 N15G26    30.06R
NEWCASTLE      FAIR      70  28  21 NW16G23   30.02R

$$
WYZ014>020-022>026-101>103-230300-
CENTRAL WYOMING

CITY           SKY/WX    TMP DP  RH WIND       PRES   REMARKS
BIG PINEY      FAIR      67  24  19 N16       30.16R
PINEDALE       FAIR      64  23  20 NW16      30.17R
DUBOIS         FAIR      63  16  16 NW15G25   30.16R
LANDER         FAIR      68  31  25 N14G24    30.08R
RIVERTON       FAIR      68  25  19 N23G31    30.06R
CASPER         FAIR      67  37  33 N24G30    30.04R
DOUGLAS        MOCLDY    70  38  31 NE10      30.04R

$$
WYZ021-027>030-104>119-230300-
SOUTHERN WYOMING

CITY           SKY/WX    TMP DP  RH WIND       PRES   REMARKS
EVANSTON       FAIR      69  39  33 NW12      30.19R
KEMMERER         N/A     66  32  28 NW14G24   30.18S
FORT BRIDGER   FAIR      73  28  18 NW18      30.20R
ROCK SPRINGS   FAIR      73  23  15 W22G32    30.09R
DIXON          FAIR      80  18  10 W17G25    30.05S
RAWLINS        FAIR      73  36  25 N15       30.06R
SARATOGA       FAIR      75  32  20 NW15      30.04S
LARAMIE        FAIR      66  38  35 E13G25    30.08R
CHEYENNE       FAIR      71  40  32 NE12      30.05R
TORRINGTON     CLOUDY    74  46  36 NE13      29.95R
PINE BLUFFS    CLOUDY    72  50  46 E14       30.00R

$$



USA.gov is the U.S. government's official web portal to all federal, state and local government web resources and services.